Regional Weather Roundup
Issued by NWS

Home | Current Version | Previous Version | Graphics & Text | Print | Product List | Glossary On
Versions: 1 2 3 4 5 6 7 8 9 10 11 12 13 14 15 16 17 18 19 20 21 22 23 24 25 26 27
000
ASUS45 KBOU 250607
RWRCO

WEATHER ROUNDUP FOR COLORADO
NATIONAL WEATHER SERVICE DENVER/BOULDER CO
1200 AM MDT SAT OCT 25 2014

NOTE: "FAIR" INDICATES FEW OR NO CLOUDS BELOW 12000 FEET WITH NO
SIGNIFICANT WEATHER AND/OR OBSTRUCTIONS TO VISIBILITY.

COZ001>005-013-030-031-250700-
...NORTHWEST COLORADO...

CITY           SKY/WX    TMP DP  RH WIND       PRES   REMARKS
CRAIG          CLEAR     37  29  72 CALM      30.32S
HAYDEN         CLEAR     45  25  45 E8        30.33S
MEEKER         CLEAR     39  29  67 NE5       30.33S
MOUNT WERNER   NOT AVBL
STEAMBOAT SPGS CLEAR     43  27  54 CALM      30.35S
WALDEN         CLEAR     50  18  27 SE5       30.39F
$$

COZ006>008-011-250700-
...WEST CENTRAL VALLEYS...

CITY           SKY/WX    TMP DP  RH WIND       PRES   REMARKS
GRAND JUNCTION CLEAR     50  34  54 SE12      30.24S
MONTROSE       CLEAR     47  30  51 S8        30.33S
EAGLE          CLEAR     39  28  65 E6        30.40S
RIFLE          CLEAR     44  33  65 S3        30.31S
DELTA          CLEAR     51  34  52 CALM      30.30S
NUCLA          CLEAR     48  27  43 E7        30.35S
$$

COZ017>023-064>068-250700-
...SOUTHWEST COLORADO...

CITY           SKY/WX    TMP DP  RH WIND       PRES   REMARKS
DURANGO        CLEAR     43  34  70 N3        30.37S
CORTEZ         CLEAR     36  28  73 CALM      30.33S
PAGOSA SPRINGS CLEAR     43  32  65 CALM      30.44S
TELLURIDE      CLEAR     45  27  48 SE7       30.52S
WOLF CREEK PAS PTCLDY    41  23  48 SW12        N/A
$$

COZ009-010-012-014-032>034-037-058>063-250700-
...CENTRAL COLORADO...

CITY           SKY/WX    TMP DP  RH WIND       PRES   REMARKS
ASPEN          CLEAR     40  24  53 S7        30.43S
BUENA VISTA    CLEAR     40  22  47 CALM      30.44R
COPPER MTN     CLEAR     45  14  29 S14       30.66S
BERTHOUD PASS  FAIR      36  32  87 W22G31    30.66S
COTTONWOOD PAS CLEAR     52   0  11 NW6       30.53S
GUNNISON       CLEAR     34  21  60 CALM      30.49R
KREMMLING      CLEAR     32  23  69 W3          N/A
LEADVILLE      CLEAR     31  20  63 NE7       30.53S WCI  24
MONARCH PASS   CLEAR     39  10  30 W22       30.75S
SALIDA         CLEAR     47  20  34 W6        30.49R
SUNLIGHT       CLEAR     45  21  39 CALM      30.59F
WILKERSON PASS NOT AVBL
$$

COZ069>075-250700-
...SAN LUIS VALLEY/SANGRE DE CRISTO MOUNTAINS...

CITY           SKY/WX    TMP DP  RH WIND       PRES   REMARKS
ALAMOSA        PTCLDY    35  24  64 CALM      30.40S
LA VETA PASS   PTCLDY    46  21  36 S10       30.55F
SAGUACHE       CLEAR     45  21  39 NW13      30.43S
$$

COZ035-036-038>040-250700-
...NORTHERN COLORADO FRONT RANGE...

CITY           SKY/WX    TMP DP  RH WIND       PRES   REMARKS
DENVER INTL AP CLEAR     52  27  38 S9        30.20F
DMNS CITY PARK   N/A     54  27  35 SW1G9     30.20F
AURORA         CLEAR     55  26  32 SW7       30.23S
FRONT RANGE AP CLEAR     59  28  31 SW12      30.22S
ERIE MUNI ARPT CLEAR     48  27  44 CALM      30.19S
BOULDER MUN AP CLEAR     63  21  20 CALM      30.20R
CENTENNIAL     CLEAR     53  26  35 SW8       30.24S
BROOMFIELD     CLEAR     63  19  19 CALM      30.22S
FORT COLLINS   CLEAR     52  36  54 CALM      30.21R
LONGMONT       CLEAR     45  30  55 CALM      30.21S
$$

COZ041-046-047-076>085-087-088-250700-
...PIKES PEAK/PALMER DIVIDE AND SOUTHERN FOOTHILLS...

CITY           SKY/WX    TMP DP  RH WIND       PRES   REMARKS
COLO. SPRINGS  CLEAR     49  27  42 N8        30.28S
A. F. ACADEMY  CLEAR     43  25  49 N9        30.30F
ELLICOTT       NOT AVBL
FALCON         CLEAR     46  24  43 W5        30.32F
FORT CARSON    CLEAR     54  24  31 N6        30.25S
LIMON          CLEAR     41  31  67 N3        30.22F
MONUMENT HILL  CLEAR     50  21  32 SW10      30.31S
TRINIDAD       CLEAR     54  30  40 W13       30.25S
$$

COZ042>045-048>051-090-091-250700-
...NORTHEAST COLORADO...

CITY           SKY/WX    TMP DP  RH WIND       PRES   REMARKS
GREELEY ARPT   CLEAR     43  28  56 NE9       30.19R
AKRON          CLEAR     59  24  26 S10       30.16F
BURLINGTON     CLEAR     48  31  51 W9        30.15S
WRAY           CLEAR     51  29  43 NW7       30.12S
STERLING       CLEAR     43  34  70 W6        30.13F
HOLYOKE        CLEAR     46  34  61 W6        30.13F
FORT MORGAN    CLEAR     53  24  32 W7        30.17S
$$

COZ086-089-092>099-250700-
...SOUTHEAST COLORADO...

CITY           SKY/WX    TMP DP  RH WIND       PRES   REMARKS
PUEBLO         CLEAR     48  29  47 W9        30.19R
LA JUNTA       CLEAR     51  35  54 W7        30.13S
LAMAR          CLEAR     49  38  65 E3        30.10S
SPRINGFIELD      N/A     51  37  58 SW8       30.16S
$$



USA.gov is the U.S. government's official web portal to all federal, state and local government web resources and services.